User: anonymous   Login
Location: Caltech
(34.1382°N, 118.1253°W)
Time: 12:30:08
(UTC-07:00)
Language:

RS-15 - Orbit

View from above orbital plane
View from above orbital plane
View from above satellite
View from above satellite

Ground track
Ground track

The orbit data is extracted from the following two-line orbital elements,

1 23439U 94085A   17115.88279703 -.00000039 +00000-0 +11617-3 0  9998
2 23439 064.8160 303.7666 0167278 254.7740 252.1321 11.27565539919514
Epoch (UTC): 25 April 2017 21:11:13
Eccentricity: 0.0167278
inclination: 64.8160°
perigee height: 1882 km
apogee height: 2163 km
right ascension of ascending node: 303.7666°
argument of perigee: 254.7740°
revolutions per day: 11.27565539
mean anomaly at epoch: 252.1321°
orbit number at epoch: 91951

The dashed part of the orbit path shows where the satellite is in the earth's shadow,  

DLR